[[{"header":{"parameterUnit":"m.s-1","parameterCategory":1,"la1":30.2991,"la2":30.254,"lo1":-89.0895,"lo2":-89.0444,"dy":0.0017,"dx":0.0017,"nx":28,"ny":28,"refTime":"2024-07-31T09:00:00:Z","depth":0,"parameterNumber":2,"parameterNumberName":"U-component_of_WINDS"},"data":[0,0,0,0,0,0,0,0,0,0,0,0,0,0,0,0,0,0,0,0,0,0,0,0,0,0,0,0,0,0,0,0,0,0,0,0,0,0,0,0,0,0,0,0,0,0,0,0,0,0,0,0,0,0,0,0,0,0,1.6853,1.6854,0,1.6984,1.6986,1.6987,1.7027,1.7026,1.7026,1.7025,1.716,1.7164,1.7169,0,0,0,0,0,0,0,0,0,0,0,0,0,1.6634,1.6638,1.6853,1.6854,1.6856,1.6984,1.6986,1.6988,1.7027,1.7026,1.7025,1.7025,1.7159,1.7164,1.7169,0,0,0,0,0,0,0,0,0,0,0,0,0,1.6744,1.6639,1.6852,1.6891,1.6896,1.6984,1.6986,1.6988,1.7027,1.7026,1.7025,1.7024,1.7157,1.7163,1.717,1.7229,0,0,1.7189,1.7192,0,0,0,0,0,0,0,0,1.6737,1.6752,1.6884,1.6889,1.6894,1.6988,1.6959,1.7069,1.7027,1.6977,1.7025,1.7024,1.7104,1.7115,1.7141,1.7235,1.7241,1.719,1.7193,1.7196,1.7198,0,0,0,0,0,0,0,1.673,1.6746,1.6905,1.6886,1.6892,1.6901,1.6916,1.698,1.7045,1.6982,1.6985,1.7,1.7107,1.7135,1.7145,1.7243,1.7189,1.7195,1.7199,1.7201,1.739,1.7391,0,0,0,0,0,0,1.6716,1.674,1.6901,1.6909,1.6812,1.6906,1.6922,1.6959,1.7044,1.7056,1.7001,1.7001,1.7125,1.7137,1.715,1.7223,1.7196,1.7202,1.7206,1.7388,1.739,1.7391,0,0,0,0,0,0,1.6711,1.673,1.6895,1.6825,1.6847,1.6911,1.6952,1.6962,1.6991,1.7058,1.707,1.7018,1.7125,1.7141,1.7208,1.7229,1.7205,1.7211,1.7387,1.7389,1.7391,1.7371,0,0,0,0,0,0,1.6704,1.6728,1.6751,1.6825,1.6851,1.6952,1.6953,1.6965,1.7002,1.7004,1.7078,1.7089,1.7125,1.7199,1.7215,1.7237,1.7216,1.7386,1.7388,1.739,1.7371,1.7372,1.7374,0,0,0,0,0,1.6696,1.6741,1.6752,1.6772,1.6881,1.6953,1.6968,1.7008,1.7003,1.7027,1.707,1.7087,1.7224,1.7205,1.7224,1.7248,1.7384,1.7387,1.739,1.737,1.7372,1.7374,0,0,0,0,0,0,1.6669,1.6752,1.6765,1.6835,1.6887,1.696,1.6991,1.7009,1.7063,1.7063,1.7111,1.7127,1.7191,1.7226,1.7204,1.7309,1.7305,1.7311,1.7283,1.7286,1.7287,1.7277,1.7221,0,0,0,0,0,1.667,1.6722,1.6792,1.6847,1.6872,1.6927,1.696,1.6986,1.7041,1.7064,1.7112,1.7165,1.7219,1.7255,1.7309,1.7376,1.7392,1.7401,1.7403,1.7404,1.7409,1.7445,1.745,1.74,1.74,1.74,0,0,1.6675,1.6727,1.6757,1.6843,1.6886,1.6937,1.6945,1.7,1.7038,1.7072,1.7138,1.7175,1.7237,1.7304,1.7336,1.7336,1.7426,1.7408,1.7408,1.7412,1.7448,1.7453,1.7457,1.7402,1.7402,1.7401,0,0,1.671,1.6755,1.6805,1.6847,1.6912,1.6948,1.696,1.703,1.7055,1.7122,1.7148,1.7194,1.7288,1.7331,1.7365,1.7413,1.743,1.7429,1.7438,1.7472,1.7476,1.748,1.7496,1.7501,1.7434,1.7434,1.7434,0,1.6708,1.6787,1.6828,1.6881,1.6918,1.6949,1.7,1.7039,1.7118,1.7142,1.7141,1.7257,1.7302,1.7378,1.7389,1.7416,1.743,1.7421,1.7472,1.7477,1.7481,1.7496,1.7502,1.7433,1.7433,1.7434,1.7434,0,1.678,1.6834,1.6867,1.6941,1.6981,1.7033,1.7081,1.7117,1.7139,1.7174,1.7241,1.7295,1.736,1.738,1.7403,1.7459,1.7456,1.7463,1.746,1.7484,1.7499,1.7506,1.7433,1.7433,1.7433,1.7433,0,0,1.6802,1.6897,1.6909,1.6942,1.7015,1.7057,1.7109,1.7172,1.7201,1.7254,1.7298,1.7375,1.7381,1.7419,1.7447,1.7477,1.751,1.748,1.7483,1.7483,1.7573,1.7567,1.7573,1.7522,1.7523,1.7524,1.7568,0,1.6845,1.6939,1.6977,1.7053,1.7103,1.7133,1.7178,1.7227,1.7261,1.7308,1.7346,1.7399,1.7404,1.7427,1.7458,1.7499,1.7529,1.7497,1.7562,1.7564,1.7545,1.7582,1.7576,1.7615,1.7574,1.7575,1.7576,0,1.6908,1.6961,1.7041,1.7106,1.7129,1.7168,1.7228,1.7273,1.7328,1.7351,1.7392,1.7418,1.7472,1.7465,1.754,1.7517,1.7546,1.757,1.7573,1.758,1.7571,1.7589,1.7628,1.7634,1.7586,1.7585,1.7585,0,1.6914,1.7005,1.7065,1.7093,1.717,1.7197,1.7231,1.7285,1.732,1.7372,1.7394,1.7452,1.7483,1.7527,1.7567,1.7558,1.7637,1.7634,1.7657,1.7656,1.7672,1.7671,1.7715,1.7692,1.7692,1.7692,1.7691,0,1.6958,1.7006,1.7068,1.7105,1.7159,1.7202,1.7254,1.7289,1.7337,1.738,1.741,1.745,1.75,1.7546,1.7578,1.7634,1.7649,1.7668,1.7675,1.7665,1.7662,1.7684,1.7682,1.7693,1.7693,1.7693,1.7692,0,1.6974,1.7018,1.7085,1.7152,1.717,1.7207,1.7264,1.73,1.7335,1.7389,1.7404,1.7459,1.7515,1.7558,1.7631,1.7652,1.7711,1.772,1.7692,1.7696,1.7716,1.7713,1.7776,1.7786,1.7756,1.7756,1.7756,0,1.6999,1.7036,1.7107,1.7138,1.7171,1.7221,1.7256,1.7299,1.7334,1.7398,1.7426,1.7484,1.7532,1.7619,1.7665,1.772,1.773,1.7749,1.7739,1.7726,1.7729,1.7726,1.773,1.775,1.775,1.775,1.775,0,1.7037,1.7057,1.7106,1.7163,1.7204,1.7251,1.7298,1.7321,1.7373,1.741,1.7467,1.7504,1.7578,1.7634,1.7693,1.7727,1.7747,1.7752,1.776,1.775,1.7731,1.774,1.7694,1.7751,1.7751,1.7751,1.7751,1.7751,1.7058,1.7092,1.7147,1.72,1.724,1.7283,1.732,1.7359,1.7407,1.747,1.7492,1.755,1.7602,1.7684,1.7718,1.7764,1.7765,1.7777,1.778,1.7782,1.778,1.7724,1.7775,1.7775,1.7775,1.7775,1.7775,0,1.7097,1.7134,1.7182,1.7247,1.7289,1.7303,1.7356,1.7389,1.744,1.7488,1.7534,1.7598,1.7652,1.7701,1.7758,1.7784,1.7794,1.7797,1.7796,1.7803,1.7776,1.7763,1.7788,1.7788,1.7788,1.7788,1.7788,1.7788,1.7123,1.718,1.7206,1.7283,1.7319,1.7376,1.7404,1.7443,1.7481,1.7551,1.7596,1.7628,1.7676,1.7735,1.7785,1.7798,1.7817,1.7818,1.7833,1.7807,1.7805,1.7803,1.7791,1.7822,1.7822,1.7856,1.7856,1.7856]},{"header":{"parameterUnit":"m.s-1","parameterCategory":1,"la1":30.2991,"la2":30.254,"lo1":-89.0895,"lo2":-89.0444,"dy":0.0017,"dx":0.0017,"nx":28,"ny":28,"refTime":"2024-07-31T09:00:00:Z","depth":0,"parameterNumber":3,"parameterNumberName":"V-component_of_WINDS"},"data":[0,0,0,0,0,0,0,0,0,0,0,0,0,0,0,0,0,0,0,0,0,0,0,0,0,0,0,0,0,0,0,0,0,0,0,0,0,0,0,0,0,0,0,0,0,0,0,0,0,0,0,0,0,0,0,0,0,0,3.7168,3.7168,0,3.7138,3.7138,3.7138,3.7159,3.716,3.716,3.7161,3.7123,3.7121,3.7119,0,0,0,0,0,0,0,0,0,0,0,0,0,3.7236,3.7235,3.7168,3.7168,3.7168,3.7138,3.7138,3.7138,3.7158,3.716,3.7161,3.7162,3.7123,3.7121,3.7119,0,0,0,0,0,0,0,0,0,0,0,0,0,3.7206,3.7235,3.7169,3.7175,3.7175,3.7139,3.7138,3.7137,3.7158,3.716,3.7161,3.7162,3.7124,3.7121,3.7118,3.7071,0,0,3.7109,3.7108,0,0,0,0,0,0,0,0,3.7208,3.7204,3.7174,3.7174,3.7175,3.7154,3.7148,3.7115,3.7158,3.7164,3.7161,3.7163,3.7131,3.7128,3.7119,3.707,3.7068,3.7109,3.7107,3.7106,3.7105,0,0,0,0,0,0,0,3.721,3.7205,3.7156,3.7174,3.7174,3.7177,3.7174,3.7142,3.714,3.7164,3.7165,3.7162,3.7132,3.7122,3.7118,3.7067,3.7109,3.7107,3.7105,3.7104,3.6976,3.6975,0,0,0,0,0,0,3.7213,3.7207,3.7157,3.7155,3.7196,3.7174,3.7171,3.7159,3.714,3.7139,3.7161,3.7163,3.7126,3.7121,3.7117,3.7059,3.7106,3.7103,3.7102,3.6978,3.6976,3.6974,0,0,0,0,0,0,3.7214,3.7208,3.7159,3.7182,3.7176,3.7172,3.7157,3.7158,3.7148,3.7138,3.7137,3.7151,3.7127,3.7121,3.7083,3.7058,3.7102,3.71,3.698,3.6977,3.6975,3.6945,0,0,0,0,0,0,3.7216,3.7209,3.7193,3.7181,3.7174,3.7127,3.7156,3.7156,3.7144,3.7146,3.7129,3.7127,3.7127,3.7087,3.708,3.7055,3.7097,3.6982,3.6979,3.6976,3.6948,3.6942,3.6937,0,0,0,0,0,3.7218,3.7184,3.7192,3.7186,3.7155,3.7126,3.7122,3.7125,3.7142,3.7124,3.7118,3.7128,3.7063,3.7083,3.7075,3.7049,3.6983,3.698,3.6976,3.6951,3.6943,3.6937,0,0,0,0,0,0,3.719,3.7183,3.7191,3.7153,3.714,3.713,3.7108,3.7117,3.7097,3.71,3.7103,3.7098,3.7058,3.705,3.7073,3.7002,3.7025,3.702,3.7009,3.7001,3.6996,3.6998,3.7095,0,0,0,0,0,3.718,3.716,3.7153,3.712,3.7113,3.7112,3.7099,3.7103,3.7089,3.7083,3.7074,3.7058,3.7033,3.7017,3.6994,3.6948,3.6943,3.6926,3.692,3.6915,3.691,3.6882,3.6874,3.6962,3.6962,3.6962,0,0,3.7157,3.7151,3.7137,3.7114,3.7105,3.7081,3.7107,3.7081,3.7063,3.7078,3.7042,3.7035,3.7017,3.6974,3.6954,3.6965,3.6885,3.691,3.6907,3.6904,3.6878,3.687,3.6862,3.6959,3.696,3.696,0,0,3.7104,3.7098,3.7069,3.706,3.7047,3.7046,3.7039,3.7027,3.7023,3.6988,3.6999,3.6975,3.6934,3.6921,3.6908,3.685,3.6857,3.6842,3.6811,3.6784,3.6777,3.6771,3.6748,3.674,3.6837,3.6837,3.6837,0,3.7077,3.7045,3.7052,3.7026,3.7014,3.703,3.6999,3.6988,3.6967,3.6957,3.6971,3.6919,3.6908,3.6861,3.6847,3.6837,3.6827,3.6843,3.6778,3.6772,3.6766,3.6745,3.6736,3.6835,3.6835,3.6836,3.6836,0,3.7011,3.6989,3.6966,3.6948,3.6934,3.6905,3.6906,3.689,3.6895,3.6892,3.6854,3.6841,3.6816,3.6805,3.6809,3.6758,3.6766,3.6779,3.6802,3.6756,3.6736,3.6727,3.6832,3.6833,3.6834,3.6834,0,0,3.6938,3.6926,3.6917,3.6908,3.6895,3.6876,3.6847,3.6825,3.681,3.6795,3.6768,3.6733,3.6745,3.6731,3.6733,3.671,3.6663,3.6726,3.6725,3.6713,3.6604,3.6593,3.6583,3.6668,3.6667,3.6666,3.6605,0,3.6883,3.6836,3.6842,3.6795,3.6773,3.6787,3.6762,3.6749,3.6745,3.6723,3.6718,3.6693,3.6712,3.6703,3.6681,3.6673,3.664,3.6678,3.6641,3.664,3.6644,3.6573,3.6561,3.6504,3.6597,3.6596,3.6595,0,3.6813,3.6797,3.6749,3.6739,3.6729,3.6707,3.6686,3.6666,3.6651,3.665,3.6634,3.664,3.6608,3.6633,3.6588,3.6613,3.6598,3.6592,3.659,3.6585,3.6613,3.6564,3.6487,3.6477,3.6582,3.6583,3.6584,0,3.6762,3.6729,3.6696,3.6688,3.6676,3.6659,3.6652,3.6639,3.6625,3.6606,3.6596,3.6573,3.6559,3.654,3.6538,3.6557,3.6491,3.6517,3.6486,3.6486,3.647,3.6471,3.6388,3.6464,3.6464,3.6464,3.6464,0,3.6699,3.6669,3.6673,3.6652,3.6618,3.6624,3.6588,3.6583,3.6571,3.6548,3.6558,3.6535,3.6535,3.6511,3.6509,3.647,3.6464,3.646,3.646,3.6458,3.6459,3.6447,3.6451,3.6462,3.6462,3.6463,3.6463,0,3.6636,3.6639,3.6603,3.6594,3.6591,3.6566,3.6557,3.6536,3.6534,3.6504,3.6497,3.6492,3.6464,3.6461,3.6427,3.6426,3.6378,3.6383,3.6384,3.6384,3.6354,3.6356,3.6258,3.6245,3.6332,3.6331,3.633,0,3.6595,3.6572,3.6562,3.6548,3.6541,3.6519,3.6505,3.651,3.6494,3.6475,3.6456,3.6429,3.6408,3.6362,3.6354,3.6328,3.633,3.6298,3.6326,3.6325,3.6327,3.6328,3.6325,3.6292,3.6291,3.629,3.629,0,3.6521,3.6524,3.6505,3.6486,3.647,3.6455,3.6441,3.6428,3.643,3.6412,3.6385,3.6369,3.6336,3.6308,3.6283,3.6273,3.628,3.6281,3.6272,3.627,3.6271,3.6268,3.6367,3.6283,3.6283,3.6284,3.6284,3.6285,3.6467,3.6447,3.6436,3.6415,3.6405,3.6391,3.6371,3.6367,3.6346,3.6321,3.6324,3.6293,3.6277,3.6244,3.6232,3.6206,3.6217,3.6204,3.6201,3.6197,3.6194,3.6277,3.6202,3.6202,3.6202,3.6202,3.6202,0,3.6392,3.6386,3.6367,3.6348,3.633,3.6342,3.6327,3.631,3.6284,3.627,3.625,3.6217,3.6191,3.6181,3.6154,3.6135,3.6137,3.6127,3.6128,3.6125,3.6187,3.6196,3.6126,3.6126,3.6126,3.6126,3.6126,3.6126,3.6351,3.6317,3.6318,3.6279,3.6273,3.6245,3.6235,3.6222,3.6211,3.6175,3.6154,3.6149,3.6135,3.6108,3.6083,3.608,3.6069,3.6057,3.6056,3.6113,3.6121,3.6128,3.6137,3.6055,3.6055,3.5996,3.5995,3.5995]}]]